N2XP Weather Reports


time (UTC)temp
C
wind
direction
speed
KPH
gust
KPH
rain 1hr
cm
rain 24hr
cm
rain mn
cm
humidity
%
barometer
mb
20260506191524 15 166 0.0 19.3 0.23 0.58 0.58 96 1004.6
20260506190022 15 240 6.4 16.1 0.23 0.56 0.56 96 1004.6
20260506184521 15 197 1.6 16.1 0.23 0.51 0.51 96 1004.7
20260506183020 15 213 0.0 9.7 0.15 0.43 0.43 96 1004.7
20260506181518 15 248 1.6 12.9 0.10 0.36 0.36 96 1004.9
20260506180022 15 220 0.0 12.9 0.05 0.33 0.33 96 1004.9
20260506174519 15 202 4.8 16.1 0.05 0.28 0.28 95 1005.1
20260506173018 15 205 0.0 14.5 0.05 0.28 0.28 95 1004.9
20260506171515 15 210 1.6 14.5 0.08 0.25 0.25 95 1005.0
20260506170013 15 211 0.0 11.3 0.15 0.25 0.25 95 1005.1
20260506164510 16 211 1.6 14.5 0.15 0.23 0.23 95 1005.1
20260506163008 16 184 0.0 8.0 0.15 0.23 0.23 94 1005.4
20260506161506 16 237 0.0 1.6 0.13 0.15 0.15 94 1006.0
20260506160003 16 236 0.0 9.7 0.10 0.10 0.10 93 1006.2
20260506154603 16 238 0.0 9.7 0.08 0.08 0.08 92 1006.3
20260506153103 17 222 0.0 8.0 0.05 0.05 0.05 91 1006.2
20260506151558 17 194 0.0 8.0 0.05 0.05 0.05 89 1006.2
20260506150031 17 217 0.0 9.7 0.00 0.00 0.00 84 1006.4
20260506144630 17 207 6.4 14.5 0.00 0.00 0.00 81 1006.3
20260506143032 17 200 3.2 19.3 0.00 0.00 0.00 81 1006.4
20260506141531 17 155 0.0 14.5 0.00 0.00 0.00 81 1006.2
20260506140027 17 193 0.0 12.9 0.00 0.00 0.00 81 1006.2
20260506134527 17 175 3.2 19.3 0.00 0.00 0.00 81 1006.4
20260506133026 17 221 3.2 24.1 0.00 0.00 0.00 82 1006.5
20260506131531 17 217 3.2 19.3 0.00 0.00 0.00 81 1006.7
20260506130024 17 192 1.6 14.5 0.00 0.00 0.00 82 1006.6
20260506124523 17 206 1.6 12.9 0.00 0.00 0.00 82 1006.4
20260506123024 17 209 0.0 11.3 0.00 0.00 0.00 83 1006.3
20260506121522 17 195 0.0 11.3 0.00 0.00 0.00 83 1006.4
20260506120021 17 215 1.6 14.5 0.00 0.00 0.00 84 1006.5
20260506114519 17 214 0.0 8.0 0.00 0.00 0.00 84 1006.7
20260506113019 17 234 0.0 4.8 0.00 0.00 0.00 84 1006.7
20260506111522 16 178 1.6 11.3 0.00 0.00 0.00 85 1006.6
20260506110021 16 217 0.0 14.5 0.00 0.00 0.00 85 1006.5
20260506104514 16 215 4.8 12.9 0.00 0.00 0.00 86 1006.4
20260506103014 16 200 1.6 8.0 0.00 0.00 0.00 86 1006.3
20260506101525 16 212 1.6 8.0 0.00 0.00 0.00 86 1006.5
20260506100011 16 221 3.2 11.3 0.00 0.00 0.00 86 1006.3
20260506094521 16 211 0.0 9.7 0.00 0.00 0.00 86 1006.3
20260506093014 16 230 0.0 12.9 0.00 0.00 0.00 86 1006.3
20260506091513 16 207 0.0 8.0 0.00 0.00 0.00 86 1006.5
20260506090008 16 243 0.0 11.3 0.00 0.00 0.00 86 1006.5
20260506084507 15 216 0.0 9.7 0.00 0.00 0.00 85 1006.6
20260506083007 15 233 0.0 0.0 0.00 0.00 0.00 85 1006.6
20260506081505 16 241 0.0 6.4 0.00 0.00 0.00 84 1006.6
20260506073058 16 203 0.0 11.3 0.00 0.00 0.00 80 1006.9
20260506071601 16 212 0.0 8.0 0.00 0.00 0.00 80 1006.8
20260506061549 17 228 0.0 0.0 0.00 0.00 0.00 76 1007.2
20260506044551 17 213 0.0 8.0 0.00 0.00 0.00 73 1007.7
20260506043024 17 220 0.0 11.3 0.00 0.00 0.00 72 1007.7
20260506041521 18 205 0.0 8.0 0.00 0.00 0.00 72 1007.7
20260506040020 18 207 0.0 9.7 0.00 0.00 0.00 71 1007.7
20260506034537 18 217 1.6 14.5 0.00 0.00 0.00 70 1007.7
20260506033015 18 218 0.0 12.9 0.00 0.00 0.00 70 1007.8
20260506031544 18 223 4.8 17.7 0.00 0.00 0.00 68 1007.6
20260506030042 18 212 3.2 14.5 0.00 0.00 0.00 67 1007.7
20260506024540 19 215 0.0 14.5 0.00 0.00 0.00 64 1007.6
20260506023100 20 257 0.0 6.4 0.00 0.00 0.00 61 1007.6
20260506021539 20 211 0.0 12.9 0.00 0.00 0.00 59 1007.5
20260506020139 20 198 1.6 9.7 0.00 0.00 0.00 57 1007.3
20260506014538 21 209 0.0 12.9 0.00 0.00 0.00 57 1007.2
20260506013039 21 223 0.0 14.5 0.00 0.00 0.00 55 1007.2
20260506011535 21 220 0.0 11.3 0.00 0.00 0.00 55 1007.1
20260506010038 21 226 0.0 11.3 0.00 0.00 0.00 54 1006.8
20260506004556 21 213 0.0 9.7 0.00 0.00 0.00 52 1006.8
20260506003044 21 219 0.0 9.7 0.00 0.00 0.00 49 1006.6
20260506001535 22 203 1.6 11.3 0.00 0.00 0.00 48 1006.5
20260506000031 22 232 0.0 8.0 0.00 0.00 0.00 47 1006.3
20260505234551 22 217 1.6 14.5 0.00 0.00 0.00 45 1006.2
20260505233034 23 204 1.6 12.9 0.00 0.00 0.00 45 1006.2
20260505231533 23 218 1.6 22.5 0.00 0.00 0.00 43 1006.0
20260505230037 24 182 3.2 29.0 0.00 0.00 0.00 41 1006.0
20260505224626 24 200 3.2 20.9 0.00 0.00 0.00 41 1005.8
20260505223026 24 203 1.6 17.7 0.00 0.00 0.00 40 1005.6
20260505221522 25 205 6.4 27.4 0.00 0.00 0.00 39 1005.7
20260505220029 25 189 9.7 29.0 0.00 0.00 0.00 39 1005.5
20260505214524 25 167 8.0 22.5 0.00 0.00 0.00 38 1005.5
20260505213020 25 226 3.2 19.3 0.00 0.00 0.00 38 1005.4
20260505211519 25 233 3.2 22.5 0.00 0.00 0.00 39 1005.3
20260505210018 26 223 3.2 40.2 0.00 0.00 0.00 37 1005.0
20260505204519 26 252 1.6 29.0 0.00 0.00 0.00 37 1004.8
20260505203016 26 180 3.2 25.7 0.00 0.00 0.00 39 1005.1
20260505201521 27 252 4.8 35.4 0.00 0.00 0.00 36 1005.2
20260505200015 27 194 3.2 29.0 0.00 0.00 0.00 37 1005.3
20260505194528 27 211 3.2 19.3 0.00 0.00 0.00 39 1005.2
20260505193031 27 190 4.8 20.9 0.00 0.00 0.00 39 1005.5